STARLINK-37018, 68103

Orbit data source: Space-Track

STARLINK-37018, 68103 is a payload satellite owned by SpaceX/Seattle (US) in SSO that was launched on Sun, 08 Mar 2026 UTC via an FALCON 9 launch vehicle from the Air Force Western Test Range (AFWTR). Payload-class satellites include a variety of spacecraft equipped with specific instruments for various scientific and technological missions. These include communications satellites like Starlink; space stations such as the ISS; scientific satellites like the Hubble; Earth observation satellites from companies like Planet Labs, Umbra, and HawkEye 360; GPS; miniature CubeSats for education and research; and military/defense satellites.

Loading next visibility...
Identifier
68103, 2026-044C
Orbit
SSO
Country
Flag of USUS
Related business
Manufacturer
SpaceX/Seattle
Mission
Operational spacecraft
Bus & Motor
STARLINK V2MO, Unknown motor
Mass
575 kg wet, ~530 kg dry
Launch date (UTC)
2026-03-08 (2 months ago)
Launch vehicle
FALCON 9
Launch site
Air Force Western Test Range (AFWTR)
Object type
Payload
Rocket body
Debris
Shape & HBR
Unknown shape, 17.7 m
Radar Cross Section
RCS unknown

Expand to show TLE details & history
Last TLE update: 13 hours ago

TLE from 13 hours ago
0 STARLINK-37018
1 68103U 26044C   26119.35271108  .00033758  00000-0  10426-2 0  9991
2 68103  97.2854  80.2874 0000858 110.5557 249.5778 15.33466578  9345
Epoch: 2026-04-29T08:27Z
TLE epoch observation values (Epoch: 2026-04-29T08:27:54.237Z)
Latitude
-0°
Longitude
95.99652°
Altitude
468.796 km
Speed
7.632 km/s
True Right ascension
05h 21m 08s
True Declination
0° 00' 00"
Sunlit
Object was in daylight at epoch
Visualization orbit readout
Latitude
Unknown
Longitude
Unknown
Altitude
Unknown
Speed
Unknown
Apparent Right ascension
Unknown
Apparent Declination
Unknown
Sunlit
N/A
Visualization observer readout
Local Sidereal Time
04:40:08
Azimuth
Unknown
Elevation
Unknown
Doppler factor
Unknown
Orbital elements
Apogee altitude
463.009 km
Perigee altitude
461.835 km
Semi-major axis
6,840.559 km
Eccentricity
0.00009
Inclination
97.2854°
RAAN
80.2874°
Arg. of periapsis
110.5557°
True anomaly
249.56859°
Mean anomaly
249.5778°
Eccentric anomaly
249.57319°
Mean motion
3.83624 °/min
Orbital period
93.84 mins
BSTAR
0.0010426
Loading maneuver chart data...
Computing Atmospheric mass density...
Loading historical data...
Loading historical data...
Loading historical data...
Loading historical data...
Loading historical data...
Loading historical data...
Loading historical data...

Documentation

Showing up to 5 results
|